�������l�o���
Date,Time,MP-1(��Sv/h),MP-2(��Sv/h),MP-3(��Sv/h),MP-4(��Sv/h),MP-5(��Sv/h),MP-6(��Sv/h),MP-7(��Sv/h),����,����(m/s),���J
2015/12/14,00:00,0.451,0.267,0.474,0.430,0.415,0.217,0.188,�k�k��,8.7,��
2015/12/14,00:10,0.450,0.266,0.474,0.430,0.416,0.217,0.189,�k�k��,8.5,��
2015/12/14,00:20,0.452,0.266,0.474,0.431,0.418,0.217,0.189,�k�k��,8.9,��
2015/12/14,00:30,0.453,0.267,0.472,0.431,0.417,0.217,0.189,�k�k��,9.2,��
2015/12/14,00:40,0.452,0.267,0.475,0.429,0.416,0.217,0.188,�k�k��,9.3,��
2015/12/14,00:50,0.449,0.267,0.473,0.430,0.417,0.217,0.190,�k�k��,8.9,��
2015/12/14,01:00,0.451,0.268,0.474,0.431,0.416,0.217,0.189,�k�k��,8.8,��
2015/12/14,01:10,0.450,0.266,0.476,0.430,0.417,0.217,0.188,�k�k��,9.2,��
2015/12/14,01:20,0.451,0.265,0.474,0.432,0.418,0.217,0.188,�k�k��,8.9,��
2015/12/14,01:30,0.451,0.267,0.474,0.430,0.415,0.217,0.189,�k�k��,10.4,��
2015/12/14,01:40,0.448,0.267,0.476,0.430,0.418,0.218,0.189,�k�k��,10.1,��
2015/12/14,01:50,0.451,0.266,0.472,0.432,0.418,0.218,0.190,�k,9.8,��
2015/12/14,02:00,0.452,0.267,0.474,0.430,0.417,0.217,0.189,�k�k��,9.2,��
2015/12/14,02:10,0.450,0.267,0.475,0.430,0.417,0.218,0.190,�k,9.2,��
2015/12/14,02:20,0.454,0.267,0.476,0.431,0.418,0.217,0.189,�k�k��,10.3,��
2015/12/14,02:30,0.452,0.268,0.475,0.430,0.418,0.218,0.189,�k�k��,11.1,��
2015/12/14,02:40,0.450,0.267,0.476,0.431,0.418,0.218,0.189,�k�k��,11.8,��
2015/12/14,02:50,0.452,0.267,0.474,0.432,0.418,0.218,0.190,�k�k��,11.2,��
2015/12/14,03:00,0.450,0.268,0.474,0.429,0.417,0.217,0.190,�k�k��,10.0,��
2015/12/14,03:10,0.451,0.267,0.474,0.430,0.417,0.218,0.190,�k�k��,10.4,��
2015/12/14,03:20,0.453,0.267,0.473,0.432,0.419,0.217,0.189,�k�k��,10.0,��
2015/12/14,03:30,0.452,0.268,0.477,0.429,0.417,0.218,0.189,�k�k��,9.8,��
2015/12/14,03:40,0.450,0.267,0.473,0.430,0.417,0.217,0.189,�k�k��,10.4,��
2015/12/14,03:50,0.453,0.268,0.474,0.430,0.417,0.217,0.190,�k�k��,10.0,��
2015/12/14,04:00,0.451,0.267,0.477,0.431,0.418,0.219,0.190,�k�k��,8.8,��
2015/12/14,04:10,0.451,0.267,0.475,0.431,0.416,0.217,0.189,�k�k��,9.8,��
2015/12/14,04:20,0.452,0.268,0.476,0.432,0.418,0.217,0.190,�k�k��,10.1,��
2015/12/14,04:30,0.449,0.267,0.477,0.430,0.417,0.216,0.189,�k�k��,9.2,��
2015/12/14,04:40,0.452,0.266,0.474,0.431,0.416,0.218,0.188,�k�k��,8.1,��
2015/12/14,04:50,0.451,0.266,0.476,0.432,0.419,0.218,0.189,�k�k��,8.1,��
2015/12/14,05:00,0.451,0.266,0.475,0.430,0.419,0.218,0.189,�k�k��,9.2,��
2015/12/14,05:10,0.454,0.267,0.473,0.431,0.418,0.217,0.189,�k�k��,9.2,��
2015/12/14,05:20,0.450,0.266,0.476,0.430,0.417,0.218,0.189,�k�k��,8.3,��
2015/12/14,05:30,0.450,0.268,0.475,0.430,0.419,0.217,0.189,�k�k��,8.4,��
2015/12/14,05:40,0.452,0.268,0.475,0.431,0.418,0.218,0.191,�k�k��,8.7,��
2015/12/14,05:50,0.450,0.266,0.476,0.432,0.420,0.218,0.188,�k�k��,8.7,��
2015/12/14,06:00,0.451,0.268,0.475,0.430,0.417,0.217,0.190,�k�k��,8.8,��
2015/12/14,06:10,0.453,0.268,0.474,0.432,0.416,0.218,0.189,�k�k��,8.2,��
2015/12/14,06:20,0.452,0.266,0.476,0.431,0.419,0.217,0.189,�k�k��,9.3,��
2015/12/14,06:30,0.453,0.266,0.474,0.429,0.416,0.218,0.188,�k�k��,8.7,��
2015/12/14,06:40,0.453,0.268,0.476,0.433,0.419,0.217,0.189,�k�k��,8.3,��
2015/12/14,06:50,0.450,0.266,0.475,0.431,0.419,0.217,0.190,�k�k��,8.7,��
2015/12/14,07:00,0.453,0.266,0.474,0.431,0.418,0.218,0.189,�k�k��,8.1,��
2015/12/14,07:10,0.453,0.268,0.477,0.431,0.417,0.217,0.189,�k�k��,7.5,��
2015/12/14,07:20,0.451,0.267,0.476,0.431,0.418,0.218,0.189,�k�k��,7.0,��
2015/12/14,07:30,0.453,0.266,0.473,0.432,0.416,0.218,0.190,�k�k��,7.5,��
2015/12/14,07:40,0.452,0.268,0.476,0.432,0.418,0.217,0.189,�k�k��,7.9,��
2015/12/14,07:50,0.449,0.267,0.473,0.431,0.419,0.218,0.189,�k�k��,8.1,��
2015/12/14,08:00,0.454,0.267,0.474,0.432,0.417,0.217,0.189,�k�k��,8.2,��
2015/12/14,08:10,0.451,0.267,0.475,0.431,0.418,0.218,0.190,�k,8.4,��
2015/12/14,08:20,0.451,0.266,0.475,0.431,0.418,0.218,0.188,�k�k��,8.1,��
2015/12/14,08:30,0.454,0.267,0.475,0.432,0.418,0.218,0.189,�k�k��,6.2,��
2015/12/14,08:40,0.451,0.268,0.474,0.428,0.416,0.218,0.190,�k�k��,6.5,��
2015/12/14,08:50,0.452,0.267,0.474,0.431,0.419,0.218,0.190,�k�k��,7.0,��
2015/12/14,09:00,0.454,0.266,0.477,0.432,0.417,0.217,0.190,�k�k��,7.3,��
2015/12/14,09:10,0.450,0.268,0.475,0.430,0.417,0.218,0.189,�k�k��,5.9,��
2015/12/14,09:20,0.452,0.268,0.475,0.433,0.419,0.217,0.189,�k�k��,4.3,��
2015/12/14,09:30,0.451,0.267,0.476,0.429,0.416,0.218,0.190,�k�k��,4.4,��
2015/12/14,09:40,0.451,0.268,0.474,0.431,0.418,0.218,0.190,�k,5.1,��
2015/12/14,09:50,0.453,0.267,0.475,0.432,0.418,0.217,0.189,�k,4.5,��
2015/12/14,10:00,0.450,0.266,0.475,0.432,0.417,0.218,0.189,�k,5.0,��
2015/12/14,10:10,0.454,0.267,0.473,0.433,0.419,0.218,0.190,�k�k��,5.2,��
2015/12/14,10:20,0.450,0.267,0.478,0.429,0.417,0.217,0.189,�k,5.5,��
2015/12/14,10:30,0.450,0.268,0.473,0.432,0.417,0.219,0.189,�k,5.5,��
2015/12/14,10:40,0.451,0.267,0.477,0.432,0.418,0.218,0.190,�k,6.2,��
2015/12/14,10:50,0.452,0.268,0.473,0.431,0.416,0.218,0.190,�k,6.3,��
2015/12/14,11:00,0.454,0.266,0.475,0.431,0.419,0.218,0.189,�k,6.3,��
2015/12/14,11:10,0.450,0.266,0.475,0.433,0.418,0.219,0.189,�k,5.9,��
2015/12/14,11:20,0.453,0.267,0.472,0.433,0.419,0.218,0.190,�k,5.2,��
2015/12/14,11:30,0.450,0.267,0.477,0.431,0.419,0.218,0.189,�k,5.7,��
2015/12/14,11:40,0.451,0.268,0.474,0.432,0.419,0.218,0.189,�k,6.0,��
2015/12/14,11:50,0.452,0.266,0.477,0.430,0.420,0.218,0.190,�k,4.5,��
2015/12/14,12:00,0.450,0.266,0.475,0.435,0.417,0.218,0.190,�k,5.7,��
2015/12/14,12:10,0.452,0.268,0.474,0.432,0.421,0.218,0.190,�k,6.0,��
2015/12/14,12:20,0.451,0.266,0.477,0.433,0.418,0.218,0.190,�k,5.7,��
2015/12/14,12:30,0.453,0.267,0.473,0.432,0.421,0.218,0.190,�k,4.5,��
2015/12/14,12:40,0.451,0.267,0.477,0.431,0.420,0.217,0.191,�k,5.2,��
2015/12/14,12:50,0.452,0.266,0.473,0.433,0.418,0.219,0.190,�k,5.5,��
2015/12/14,13:00,0.454,0.268,0.477,0.431,0.420,0.219,0.190,�k,6.3,��
2015/12/14,13:10,0.450,0.267,0.474,0.434,0.418,0.218,0.190,�k,5.8,��
2015/12/14,13:20,0.453,0.267,0.475,0.432,0.419,0.218,0.190,�k,4.2,��
2015/12/14,13:30,0.450,0.268,0.477,0.433,0.419,0.219,0.190,�k,5.6,��
2015/12/14,13:40,0.453,0.267,0.473,0.433,0.419,0.218,0.190,�k,5.1,��
2015/12/14,13:50,0.451,0.267,0.478,0.432,0.420,0.218,0.189,�k,5.2,��
2015/12/14,14:00,0.452,0.268,0.474,0.434,0.417,0.219,0.191,�k,3.7,��
2015/12/14,14:10,0.454,0.266,0.476,0.432,0.421,0.218,0.192,�k,3.3,��
2015/12/14,14:20,0.450,0.268,0.476,0.434,0.417,0.218,0.190,�k,4.5,��
2015/12/14,14:30,0.453,0.266,0.476,0.432,0.419,0.218,0.190,�k,4.2,��
2015/12/14,14:40,0.451,0.267,0.476,0.435,0.419,0.219,0.191,�k,3.9,��
2015/12/14,14:50,0.452,0.268,0.474,0.431,0.418,0.218,0.190,�k,5.3,��
2015/12/14,15:00,0.454,0.267,0.478,0.432,0.420,0.218,0.191,�k,5.3,��
2015/12/14,15:10,0.451,0.270,0.475,0.435,0.417,0.218,0.190,�k,4.3,��
2015/12/14,15:20,0.455,0.266,0.477,0.432,0.418,0.218,0.190,�k,5.5,��
2015/12/14,15:30,0.452,0.267,0.475,0.435,0.420,0.219,0.190,�k,5.8,��
2015/12/14,15:40,0.453,0.269,0.475,0.433,0.418,0.218,0.191,�k,4.0,��
2015/12/14,15:50,0.452,0.266,0.477,0.434,0.418,0.219,0.189,�k,5.8,��
2015/12/14,16:00,0.451,0.266,0.474,0.433,0.417,0.219,0.190,�k,5.0,��
2015/12/14,16:10,0.456,0.266,0.478,0.432,0.419,0.217,0.190,�k�k��,4.5,��
2015/12/14,16:20,0.452,0.267,0.476,0.435,0.420,0.217,0.189,�k�k��,3.9,��
2015/12/14,16:30,0.453,0.268,0.476,0.432,0.418,0.218,0.189,�k�k��,4.2,��
2015/12/14,16:40,0.452,0.267,0.479,0.433,0.417,0.218,0.191,�k�k��,3.9,��
2015/12/14,16:50,0.451,0.268,0.474,0.434,0.419,0.218,0.189,�k�k��,4.2,��
2015/12/14,17:00,0.454,0.266,0.477,0.431,0.419,0.217,0.190,�k�k��,4.6,��
2015/12/14,17:10,0.452,0.267,0.475,0.434,0.419,0.218,0.189,�k�k��,5.4,��
2015/12/14,17:20,0.453,0.268,0.477,0.431,0.418,0.218,0.190,�k�k��,5.3,��
2015/12/14,17:30,0.453,0.267,0.476,0.433,0.419,0.218,0.190,�k�k��,5.5,��
2015/12/14,17:40,0.451,0.267,0.475,0.434,0.419,0.218,0.191,�k�k��,5.6,��
2015/12/14,17:50,0.454,0.268,0.477,0.432,0.418,0.217,0.189,�k�k��,5.8,��
2015/12/14,18:00,0.453,0.267,0.475,0.435,0.418,0.218,0.189,�k�k��,5.7,��
2015/12/14,18:10,0.452,0.268,0.476,0.432,0.417,0.218,0.191,�k�k��,5.3,��
2015/12/14,18:20,0.454,0.268,0.475,0.433,0.418,0.218,0.190,�k�k��,5.5,��
2015/12/14,18:30,0.452,0.266,0.475,0.434,0.418,0.217,0.191,�k�k��,5.2,��
2015/12/14,18:40,0.454,0.268,0.480,0.431,0.418,0.219,0.190,�k�k��,5.9,��
2015/12/14,18:50,0.451,0.267,0.474,0.436,0.417,0.218,0.190,�k�k��,5.8,��
2015/12/14,19:00,0.453,0.267,0.476,0.431,0.419,0.218,0.189,�k�k��,5.2,��
2015/12/14,19:10,0.454,0.269,0.475,0.432,0.418,0.219,0.191,�k�k��,5.6,��
2015/12/14,19:20,0.451,0.267,0.474,0.433,0.418,0.218,0.190,�k�k��,5.2,��
2015/12/14,19:30,0.453,0.267,0.477,0.434,0.419,0.218,0.189,�k�k��,5.4,��
2015/12/14,19:40,0.453,0.269,0.475,0.432,0.418,0.218,0.191,�k�k��,5.8,��
2015/12/14,19:50,0.450,0.267,0.476,0.433,0.419,0.218,0.191,�k�k��,5.4,��
2015/12/14,20:00,0.453,0.268,0.477,0.432,0.418,0.219,0.191,�k�k��,5.4,��
2015/12/14,20:10,0.450,0.267,0.475,0.434,0.417,0.218,0.191,�k�k��,4.3,��
2015/12/14,20:20,0.454,0.267,0.478,0.432,0.419,0.218,0.189,�k�k��,4.6,��
2015/12/14,20:30,0.451,0.268,0.475,0.433,0.417,0.219,0.190,�k�k��,4.2,��
2015/12/14,20:40,0.451,0.266,0.475,0.434,0.419,0.218,0.190,�k�k��,4.5,��
2015/12/14,20:50,0.453,0.267,0.478,0.432,0.418,0.219,0.190,�k�k��,4.0,��
2015/12/14,21:00,0.452,0.266,0.474,0.433,0.418,0.217,0.190,�k�k��,3.7,��
2015/12/14,21:10,0.452,0.267,0.477,0.433,0.419,0.219,0.189,�k�k��,4.3,��
2015/12/14,21:20,0.452,0.269,0.476,0.432,0.419,0.220,0.190,�k�k��,4.4,��
2015/12/14,21:30,0.453,0.266,0.476,0.435,0.419,0.218,0.190,�k�k��,5.5,��
2015/12/14,21:40,0.455,0.266,0.477,0.432,0.420,0.217,0.190,�k�k��,5.4,��
2015/12/14,21:50,0.451,0.268,0.474,0.433,0.419,0.219,0.190,�k�k��,5.4,��
2015/12/14,22:00,0.454,0.266,0.477,0.434,0.417,0.218,0.191,�k,5.2,��
2015/12/14,22:10,0.452,0.268,0.474,0.431,0.420,0.218,0.191,�k�k��,5.2,��
2015/12/14,22:20,0.451,0.267,0.476,0.435,0.417,0.219,0.190,�k,5.7,��
2015/12/14,22:30,0.454,0.267,0.478,0.432,0.419,0.218,0.189,�k�k��,5.4,��
2015/12/14,22:40,0.451,0.268,0.475,0.434,0.417,0.218,0.189,�k�k��,5.4,��
2015/12/14,22:50,0.454,0.267,0.477,0.433,0.417,0.218,0.190,�k�k��,5.5,��
2015/12/14,23:00,0.452,0.265,0.476,0.432,0.418,0.218,0.190,�k�k��,5.7,��
2015/12/14,23:10,0.452,0.268,0.477,0.435,0.418,0.218,0.191,�k�k��,5.4,��
2015/12/14,23:20,0.454,0.266,0.477,0.432,0.419,0.218,0.190,�k�k��,5.8,��
2015/12/14,23:30,0.451,0.267,0.476,0.433,0.419,0.218,0.191,�k�k��,5.8,��
2015/12/14,23:40,0.456,0.266,0.477,0.434,0.417,0.218,0.190,�k�k��,5.8,��
2015/12/14,23:50,0.451,0.268,0.476,0.431,0.421,0.218,0.190,�k�k��,4.9,��
